Regional Weather Roundup
Issued by NWS

Home | Current Version | Previous Version | Text Only | Print | Product List | Glossary On
Versions: 1 2 3 4 5 6 7 8 9 10 11 12 13 14 15 16 17 18 19 20 21 22 23 24 25 26 27
000
ASUS45 KSLC 310610
RWRUT

UTAH REGIONAL WEATHER ROUNDUP
NATIONAL WEATHER SERVICE SALT LAKE CITY UT
1200 AM MDT SAT JUL 31 2021

UTZ101>105-107>111-310700-

NORTHERN UTAH

CITY           SKY/WX    TMP DP  RH WIND       PRES   REMARKS
BRIGHAM CITY   CLOUDY    75  59  57 CALM      30.15S
HILL AFB       PTCLDY    74  58  58 SE8       30.18R
LOGAN          CLOUDY    71  59  65 CALM      30.18S
OGDEN          PTCLDY    76  61  59 S7        30.16R
SALT LAKE CITY MOCLDY    78  60  53 CALM      30.15S
TOOELE VALLEY  PTCLDY    68  63  83 SW3       30.17R
WENDOVER       CLOUDY    76  60  57 N5        30.17S
HEBER CITY       N/A     64  55  72 CALM      30.26S
WEST JORDAN    PTCLDY    72  65  78 S5        30.20R

$$

UTZ024>027-106-112>120-310700-

CENTRAL/NORTHEAST UTAH

CITY           SKY/WX    TMP DP  RH WIND       PRES   REMARKS
PROVO AIRPORT  MOCLDY    72  59  63 CALM      30.19S
MOAB/CANYONLAN PTCLDY    74  59  59 W3        30.14S
DELTA          MOCLDY    73  52  46 S8        30.21R
MANTI            N/A     62  59  90 CALM      30.28R
PRICE          MOCLDY    70  58  65 N6        30.26S
RICHFIELD      PTCLDY    64  59  82 SW1       30.25F
VERNAL         MOCLDY    73  59  61 W3        30.23S

$$

UTZ121>131-310700-

SOUTHERN UTAH

CITY           SKY/WX    TMP DP  RH WIND       PRES   REMARKS
BRYCE CANYON   PTCLDY    58  52  80 W7        30.42F
CEDAR CITY     PTCLDY    67  55  65 E7        30.27S
MILFORD        PTCLDY    71  55  56 W9        30.21S
PANGUITCH      CLEAR     55  54  94 SE5       30.39S
ST GEORGE      MOCLDY    81  63  54 E12       30.07S
HANKSVILLE     PTCLDY    79  61  53 CALM      30.17S
KANAB          CLEAR     66  57  72 CALM      30.28R
BLANDING         N/A     71  51  49 NE8       30.36F

$$

REGIONAL REPORTS     COLORADO/ARIZONA

CITY           SKY/WX    TMP DP  RH WIND       PRES   REMARKS
CRAIG, CO      CLOUDY    64  57  78 E6        30.36F
GRAND JUNCTION CLOUDY    67  61  81 E16       30.27R
RIFLE, CO      LGT RAIN  65  59  81 E10       30.36F
MONTROSE, CO   PTCLDY    67  54  63 CALM      30.35R
CORTEZ, CO     PTCLDY    64  55  72 E14       30.31F
COLORADO CITY    N/A     70  61  73 E14       30.26S
PAGE, AZ       CLOUDY    81  56  42 CALM      30.17S
GRAND CANYON   MOCLDY    56  55  97 CALM      30.36S
KINGMAN, AZ    PTCLDY    73  60  63 S6        30.13R
FLAGSTAFF, AZ  PTCLDY    55  54  96 CALM      30.39S

$$

REGIONAL REPORTS    NEVADA/IDAHO/WYOMING

CITY           SKY/WX    TMP DP  RH WIND       PRES   REMARKS
LAS VEGAS, NV  MOCLDY    85  59  41 S6        30.01S
ELY, NY        CLOUDY    63  55  75 SW9       30.32S
ELKO, NV       MOCLDY    69  61  75 NE6       30.24F
POCATELLO, ID  MOCLDY    68  57  68 NE6       30.21F
BURLEY, ID     MOCLDY    73  58  59 E6        30.18S
EVANSTON, WY   MOCLDY    64  53  67 E7        30.39R
ROCK SPRINGS,  PTCLDY    61  54  77 E14       30.41R
KEMMERER, WY   PTCLDY    59  52  77 N9G18     30.43R

$$



USA.gov is the U.S. government's official web portal to all federal, state and local government web resources and services.